Temp
15 16 16 16 15 14 14 18 22 22 22 23 23 23 21 20 19 20 18 19 19 19 18 18 17 17 17 16 16 16 16 16 16 16 17 17 17 17 17 16 16 16 16 16 16 16 16 16 15
15 15 15 16 14 13 14 19 20 22 22 22 22 22 19 20 20 18 18 19 20 19 19 17 17 17 17 16 16 17 17 17 16 16 17 17 17 17 17 17 17 16 16 16 16 17 16 16 15
14 14 15 12 13 13 16 20 21 22 23 22 21 20 19 19 20 19 19 19 19 19 18 17 17 17 16 16 17 17 17 17 16 15 16 17 17 17 17 17 17 17 17 17 17 17 16 16 15
13 14 15 13 13 16 18 19 21 22 22 23 22 19 19 17 19 19 18 19 19 18 18 17 17 16 16 17 17 17 17 17 16 15 16 17 17 17 17 17 17 17 17 17 17 17 16 16 16
12 13 11 12 14 17 18 21 22 21 21 22 20 17 18 18 19 18 18 18 19 18 17 16 16 16 16 16 17 17 17 17 16 15 17 17 18 18 18 17 18 17 17 17 17 17 17 17 16
12 14 11 12 14 17 19 21 23 21 22 22 19 18 16 18 17 17 18 18 18 17 16 16 16 16 16 16 17 17 17 17 16 15 16 17 18 18 18 18 18 18 18 18 17 17 17 17 16
11 10 12 13 15 17 18 20 19 20 20 20 20 15 16 16 16 17 18 18 17 17 16 16 16 16 15 16 16 17 17 16 16 15 15 16 16 17 18 18 18 18 18 18 18 18 17 17 17
12 10 13 13 15 17 18 18 18 19 18 19 19 15 16 18 16 17 18 17 17 17 17 16 16 16 16 16 17 17 17 17 16 15 16 17 17 17 17 18 18 18 18 18 18 18 18 17 17
12 11 12 13 15 16 18 17 18 18 18 18 18 18 19 18 19 16 17 17 17 17 17 16 16 16 16 16 17 17 16 17 16 16 16 16 17 17 17 17 17 18 18 18 18 18 17 17 17
12 11 12 15 14 15 17 18 18 18 17 15 16 17 17 18 19 19 16 17 17 17 16 16 16 15 15 16 17 17 17 16 16 16 16 16 17 17 17 17 17 17 17 17 17 17 17 17 17
12 11 13 13 13 15 17 17 18 17 15 16 15 16 17 16 18 20 16 16 17 17 17 16 16 15 15 15 16 17 17 17 16 16 15 15 16 16 16 17 17 18 18 17 17 17 16 16 16
10 12 12 12 11 12 15 17 16 17 16 17 17 17 16 17 17 18 17 15 16 17 17 16 16 15 15 15 15 16 16 16 16 15 15 14 14 15 16 16 17 17 17 17 17 16 16 16 15
10 11 11 11 12 11 13 14 16 16 17 17 16 16 17 17 17 17 16 16 16 17 17 16 17 16 15 15 15 15 15 15 15 15 14 14 14 15 16 16 16 16 16 16 16 16 15 15 15
11 12 11 11 12 10 12 12 15 16 17 16 16 16 15 16 17 17 17 17 17 17 17 16 16 16 16 15 15 16 16 15 15 15 15 14 15 15 15 15 15 16 16 15 15 15 15 15 14
12 11 10 11 11 10 11 12 13 16 17 17 16 16 15 15 16 16 17 17 17 16 16 16 16 16 16 16 16 16 15 15 15 15 15 15 15 15 15 15 15 15 15 15 15 15 14 14 14
11 11 10 11 10 10 10 12 12 14 16 17 16 16 16 16 16 16 16 17 17 16 16 16 16 16 16 16 16 16 16 15 15 15 15 15 15 15 15 15 15 15 15 14 14 14 14 14 14
10 8 9 9 10 10 10 11 12 14 16 16 17 16 16 16 16 16 16 16 16 17 16 16 15 16 16 16 16 15 15 15 15 15 15 14 15 15 15 15 15 14 14 14 14 14 13 13 13
10 10 10 11 9 10 10 10 12 14 13 16 16 17 16 16 17 17 17 17 17 16 16 16 16 16 16 16 15 15 15 15 15 15 15 15 15 14 14 14 14 14 13 13 13 13 13 13 13
10 11 11 12 11 11 10 11 12 13 13 14 15 16 17 16 16 17 17 17 16 17 16 16 16 16 15 15 15 15 15 15 15 15 14 15 14 14 15 14 14 14 13 13 13 13 13 13 13
9 11 12 13 11 12 11 12 12 12 13 15 16 16 16 16 16 16 17 17 17 16 16 16 16 15 15 15 15 15 15 15 15 15 14 15 15 14 14 14 13 13 14 13 12 12 12 12 11
8 9 11 12 11 10 11 11 12 13 14 16 16 16 16 16 17 16 16 17 17 17 16 16 16 16 15 15 15 15 15 15 15 15 15 15 15 14 15 15 15 14 12 12 12 12 11 11 11
8 10 12 12 11 10 11 10 12 13 13 12 14 15 15 15 16 16 16 16 17 17 17 17 16 16 16 16 15 16 16 16 15 15 15 15 15 14 14 14 14 14 14 14 14 13 13 12 12
9 10 11 12 11 11 11 11 11 12 12 12 12 15 16 16 16 17 16 16 17 17 17 17 17 15 16 16 16 16 16 15 15 15 14 14 14 14 14 15 14 14 14 14 13 13 12 12 11
10 11 10 10 10 8 11 11 10 11 13 12 13 15 16 16 16 17 17 17 17 17 17 17 17 17 15 15 15 16 16 16 15 15 14 14 14 14 15 14 14 13 13 13 12 12 11 11 11
10 9 8 8 8 9 11 10 11 13 14 13 13 15 16 16 17 17 17 17 16 16 16 16 16 16 17 16 16 15 15 15 15 14 14 14 15 15 14 13 13 12 12 12 11 11 11 10 10
9 9 7 8 8 9 11 9 12 13 14 15 16 16 16 16 16 16 16 16 16 16 15 15 15 15 15 16 15 15 15 14 14 14 15 15 14 14 14 13 12 12 11 11 11 10 10 10 9
10 8 11 9 10 7 9 11 12 12 12 13 14 15 15 15 15 15 15 15 16 16 16 16 15 15 15 14 14 14 14 14 13 13 13 13 13 12 12 12 11 11 10 10 10 10 9 9 8
11 11 8 4 8 10 8 11 10 12 11 10 10 12 14 14 14 14 14 15 15 15 15 15 14 14 13 13 13 14 14 13 13 13 12 13 12 11 11 11 10 10 9 9 9 9 8 8 8
9 9 10 9 6 8 8 9 10 10 10 9 10 13 14 14 14 14 13 13 13 13 14 13 13 12 12 12 11 11 12 13 12 11 13 12 12 11 10 10 9 9 8 8 8 8 7 7 7
9 9 10 5 9 5 5 9 12 10 10 12 13 13 13 13 13 14 13 12 12 12 12 12 11 11 10 10 11 11 11 11 11 13 13 10 11 10 8 8 8 8 7 7 7 6 6 6 6
Height
1521 1523 1523 1524 1531 1530 1535 1521 1507 1505 1508 1508 1508 1513 1516 1515 1520 1525 1518 1524 1527 1531 1536 1540 1544 1546 1548 1550 1551 1553 1554 1555 1556 1556 1556 1558 1559 1560 1561 1562 1563 1564 1565 1566 1567 1567 1569 1569 1570
1519 1521 1522 1522 1532 1540 1533 1510 1507 1501 1505 1508 1511 1517 1516 1521 1520 1520 1522 1526 1528 1531 1535 1540 1544 1546 1548 1550 1551 1553 1555 1556 1557 1557 1558 1559 1560 1561 1562 1563 1564 1565 1567 1567 1568 1569 1571 1571 1572
1517 1518 1520 1522 1528 1531 1523 1505 1501 1499 1508 1505 1513 1519 1519 1523 1525 1525 1525 1527 1529 1533 1536 1540 1544 1546 1548 1550 1552 1553 1555 1557 1558 1559 1560 1561 1562 1562 1563 1565 1566 1567 1569 1570 1571 1572 1573 1573 1574
1515 1517 1518 1521 1521 1512 1507 1501 1499 1500 1510 1506 1507 1520 1526 1523 1524 1527 1527 1529 1532 1534 1537 1541 1544 1547 1549 1551 1552 1554 1556 1558 1560 1561 1562 1562 1564 1564 1566 1567 1568 1569 1571 1571 1572 1573 1574 1575 1576
1513 1513 1519 1518 1513 1506 1503 1501 1499 1505 1503 1507 1512 1523 1527 1527 1526 1530 1530 1529 1531 1536 1538 1542 1545 1547 1549 1552 1553 1555 1556 1559 1561 1562 1563 1564 1565 1567 1568 1570 1570 1571 1572 1574 1575 1575 1576 1577 1577
1511 1509 1517 1518 1510 1502 1501 1498 1502 1504 1504 1506 1510 1517 1525 1526 1528 1533 1534 1531 1533 1536 1540 1543 1545 1547 1550 1552 1554 1555 1557 1559 1561 1563 1564 1566 1567 1568 1570 1571 1572 1573 1574 1576 1576 1577 1578 1578 1579
1506 1510 1510 1507 1508 1502 1499 1497 1499 1503 1503 1507 1508 1517 1525 1529 1530 1534 1534 1533 1534 1539 1541 1543 1545 1548 1550 1552 1554 1556 1558 1560 1562 1564 1565 1566 1569 1569 1571 1572 1573 1575 1575 1577 1577 1578 1579 1579 1579
1503 1506 1505 1504 1504 1502 1496 1497 1498 1501 1506 1506 1507 1511 1521 1521 1534 1533 1534 1534 1536 1540 1543 1544 1546 1548 1550 1553 1554 1556 1558 1561 1563 1565 1566 1567 1570 1571 1572 1573 1574 1575 1576 1577 1578 1578 1579 1579 1579
1501 1503 1505 1502 1500 1499 1495 1496 1497 1501 1503 1503 1505 1505 1511 1517 1520 1534 1534 1536 1538 1541 1543 1544 1546 1549 1551 1553 1555 1557 1559 1561 1563 1565 1567 1569 1570 1572 1573 1574 1575 1576 1576 1577 1578 1578 1579 1579 1579
1494 1498 1497 1493 1495 1494 1494 1496 1498 1502 1503 1506 1504 1508 1511 1513 1517 1522 1532 1533 1535 1539 1544 1546 1547 1549 1551 1553 1555 1557 1559 1562 1563 1565 1567 1568 1569 1572 1573 1574 1575 1576 1576 1577 1578 1578 1578 1578 1579
1492 1494 1495 1496 1497 1497 1494 1498 1501 1502 1507 1506 1505 1508 1512 1512 1511 1515 1532 1525 1532 1539 1543 1545 1547 1549 1551 1554 1556 1558 1559 1561 1564 1565 1567 1568 1568 1570 1572 1573 1574 1575 1575 1576 1577 1577 1577 1578 1578
1490 1492 1494 1497 1499 1499 1497 1500 1502 1502 1507 1508 1507 1510 1513 1512 1513 1513 1521 1539 1531 1537 1542 1544 1548 1551 1552 1554 1557 1558 1560 1561 1563 1565 1567 1568 1568 1570 1571 1572 1573 1574 1574 1575 1575 1575 1576 1576 1576
1488 1490 1494 1499 1498 1501 1502 1501 1503 1506 1507 1508 1508 1510 1513 1514 1514 1519 1528 1528 1532 1537 1539 1542 1547 1550 1553 1555 1556 1558 1560 1562 1562 1564 1567 1568 1570 1570 1570 1571 1572 1573 1573 1573 1573 1574 1574 1574 1575
1484 1488 1492 1501 1505 1509 1508 1503 1505 1508 1508 1508 1509 1509 1512 1513 1513 1516 1520 1523 1527 1534 1538 1543 1545 1548 1552 1555 1557 1558 1560 1562 1563 1565 1567 1568 1568 1569 1569 1570 1571 1572 1572 1573 1573 1573 1574 1574 1574
1484 1490 1493 1502 1502 1501 1503 1506 1508 1508 1509 1509 1509 1510 1512 1511 1512 1515 1519 1523 1529 1533 1540 1541 1544 1545 1549 1553 1557 1558 1560 1561 1562 1563 1565 1566 1566 1567 1568 1569 1569 1570 1571 1572 1572 1572 1572 1572 1573
1481 1489 1502 1500 1504 1504 1514 1510 1510 1510 1508 1509 1511 1512 1511 1510 1512 1516 1519 1522 1527 1534 1537 1538 1542 1542 1546 1550 1554 1557 1559 1560 1561 1562 1563 1564 1565 1566 1566 1567 1568 1569 1569 1570 1570 1571 1571 1570 1570
1483 1500 1503 1502 1504 1506 1513 1513 1508 1507 1507 1509 1509 1511 1511 1511 1513 1514 1518 1520 1523 1527 1533 1537 1538 1542 1544 1546 1550 1554 1556 1558 1559 1561 1561 1561 1563 1564 1565 1566 1566 1567 1567 1568 1569 1569 1569 1568 1568
1486 1492 1494 1497 1506 1507 1507 1511 1505 1501 1507 1507 1508 1509 1511 1511 1512 1514 1517 1519 1521 1523 1526 1531 1534 1537 1541 1544 1547 1550 1553 1555 1557 1558 1560 1560 1561 1563 1564 1564 1565 1565 1565 1566 1566 1566 1566 1566 1565
1483 1485 1489 1488 1493 1499 1505 1504 1501 1500 1505 1505 1505 1507 1508 1511 1513 1513 1514 1518 1519 1522 1521 1525 1532 1535 1538 1540 1543 1546 1548 1551 1554 1555 1557 1558 1559 1560 1561 1562 1563 1562 1563 1563 1563 1563 1562 1562 1562
1486 1484 1487 1484 1494 1498 1502 1501 1497 1500 1499 1500 1501 1502 1505 1509 1511 1511 1511 1516 1518 1519 1521 1527 1529 1533 1536 1537 1540 1544 1546 1548 1551 1553 1554 1556 1558 1558 1559 1559 1559 1559 1559 1559 1559 1558 1557 1557 1557
1489 1487 1486 1486 1494 1503 1501 1505 1498 1498 1496 1496 1497 1499 1501 1504 1506 1510 1511 1512 1516 1516 1518 1522 1526 1530 1533 1536 1536 1540 1543 1544 1546 1548 1551 1553 1554 1555 1555 1555 1554 1553 1554 1553 1553 1552 1552 1551 1552
1491 1484 1486 1487 1494 1504 1495 1513 1499 1492 1491 1495 1493 1495 1497 1499 1502 1504 1507 1509 1511 1514 1516 1519 1522 1525 1526 1529 1531 1535 1538 1540 1541 1544 1546 1548 1550 1550 1550 1550 1550 1549 1549 1548 1547 1546 1546 1545 1544
1487 1483 1485 1486 1493 1497 1502 1507 1494 1487 1492 1491 1488 1490 1492 1494 1497 1498 1500 1502 1506 1509 1512 1514 1517 1519 1522 1525 1526 1530 1533 1535 1538 1539 1542 1544 1545 1546 1546 1546 1545 1545 1544 1543 1542 1541 1540 1540 1540
1485 1484 1488 1491 1497 1511 1497 1500 1499 1490 1481 1484 1484 1486 1487 1490 1493 1494 1495 1497 1500 1504 1507 1509 1513 1515 1517 1520 1522 1525 1528 1530 1532 1534 1536 1538 1540 1541 1541 1541 1541 1540 1539 1538 1537 1536 1535 1535 1534
1486 1490 1504 1509 1509 1507 1490 1500 1493 1480 1477 1477 1478 1481 1485 1487 1489 1489 1491 1491 1495 1499 1503 1505 1508 1511 1512 1514 1519 1521 1524 1526 1527 1529 1531 1533 1534 1535 1536 1536 1535 1535 1534 1533 1532 1531 1530 1529 1528
1488 1492 1505 1507 1513 1503 1490 1505 1488 1474 1472 1472 1476 1480 1484 1484 1484 1486 1488 1489 1493 1497 1500 1503 1504 1506 1508 1510 1514 1516 1518 1521 1524 1526 1527 1528 1529 1530 1530 1530 1530 1530 1529 1528 1527 1526 1525 1524 1523
1490 1496 1485 1494 1495 1510 1502 1490 1479 1476 1476 1477 1479 1479 1481 1483 1485 1486 1486 1488 1491 1495 1497 1499 1500 1502 1504 1507 1510 1512 1515 1516 1519 1522 1524 1524 1525 1526 1525 1524 1524 1525 1524 1523 1522 1521 1520 1518 1518
1484 1486 1500 1511 1507 1500 1502 1489 1490 1482 1483 1482 1481 1480 1482 1483 1484 1484 1484 1486 1488 1492 1494 1496 1497 1499 1501 1504 1507 1507 1512 1515 1517 1518 1520 1518 1520 1521 1521 1518 1519 1520 1519 1518 1516 1516 1515 1514 1513
1490 1491 1490 1495 1509 1508 1508 1499 1477 1478 1478 1479 1480 1482 1483 1484 1483 1483 1484 1485 1486 1489 1490 1492 1494 1496 1498 1500 1503 1505 1508 1510 1511 1514 1513 1516 1515 1515 1514 1514 1514 1514 1513 1513 1512 1511 1509 1510 1508
1488 1488 1490 1510 1500 1509 1512 1498 1475 1473 1474 1477 1481 1483 1483 1483 1483 1482 1483 1483 1484 1486 1486 1489 1491 1493 1495 1497 1501 1503 1504 1507 1509 1508 1509 1514 1511 1510 1510 1510 1509 1508 1508 1508 1507 1505 1504 1504 1504
Wind_Speed
10 8 4 2 2 3 3 6 3 3 2 2 19 4 6 13 2 2 22 25 25 28 27 23 21 18 16 12 11 12 15 18 18 17 18 16 15 14 14 13 13 11 13 15 16 18 20 21 22
12 8 6 2 3 3 5 6 6 4 4 5 12 5 14 4 6 22 26 17 25 31 28 24 22 19 15 13 13 15 18 19 18 17 18 18 16 15 13 14 14 16 17 17 18 19 20 21 21
14 9 6 4 4 6 5 9 9 14 14 5 9 8 5 5 15 13 18 21 29 30 28 26 22 18 15 15 16 17 19 19 18 17 18 18 18 17 17 17 18 18 18 18 18 18 19 19 20
10 7 5 3 8 7 3 5 8 21 20 8 14 5 3 7 4 14 22 21 30 30 28 25 22 18 16 17 18 19 20 19 18 18 17 18 19 19 19 19 19 19 18 18 18 18 18 17 17
9 5 3 4 8 4 4 7 16 0 10 10 23 6 6 6 16 27 21 20 28 28 27 25 21 18 17 18 17 18 20 20 19 18 17 18 18 19 18 18 18 17 17 16 16 16 15 15 14
6 8 4 5 5 7 4 14 20 4 13 14 13 14 7 11 14 19 18 16 22 26 25 24 20 19 19 17 15 16 19 20 20 18 15 16 17 18 17 16 16 15 14 13 13 12 12 11 11
6 3 5 7 5 5 5 6 5 2 8 2 19 6 13 18 20 10 19 14 21 19 23 22 20 20 20 14 13 15 18 19 19 18 14 14 13 15 14 14 13 12 11 10 9 9 8 8 7
19 4 4 4 9 5 4 4 7 7 3 4 7 8 7 33 30 10 16 22 21 18 18 20 19 19 17 13 12 17 18 18 18 18 14 13 12 13 12 12 11 10 9 7 6 5 4 4 4
19 5 7 5 4 4 8 3 4 5 10 8 5 14 26 31 28 12 22 23 20 15 14 20 18 18 15 12 12 17 18 18 18 16 12 10 10 10 9 8 7 6 5 4 3 2 1 1 1
8 7 7 1 2 5 7 4 5 5 14 9 16 17 24 22 20 18 19 27 23 17 16 15 16 17 14 11 11 15 14 17 16 13 12 10 9 7 7 5 4 3 3 3 2 1 2 2 2
9 9 1 6 5 9 8 4 3 9 4 9 16 18 26 28 22 27 21 22 24 17 15 14 11 15 13 10 11 12 13 13 14 12 9 7 6 2 3 2 2 3 3 3 2 2 1 2 4
5 12 6 6 9 9 3 6 5 8 9 11 9 13 24 33 33 27 20 21 21 19 16 18 14 13 13 9 10 9 9 12 12 12 11 7 5 6 5 5 4 2 3 2 3 2 3 4 6
11 7 10 5 7 13 7 4 6 13 16 12 10 9 17 26 31 31 31 28 23 16 19 19 17 17 16 14 11 8 4 7 7 8 9 9 13 10 8 6 4 4 3 4 4 3 5 6 6
13 10 10 10 4 6 6 2 2 12 14 15 13 9 14 18 22 26 26 25 21 20 20 21 19 16 16 16 17 13 11 7 10 11 12 13 11 10 8 7 7 6 5 5 6 5 6 6 7
14 9 5 8 12 4 10 7 3 13 14 13 14 11 11 18 19 23 23 20 20 21 21 22 23 20 19 18 18 16 16 14 13 12 10 13 14 11 9 9 7 6 6 6 6 6 8 9 10
8 3 6 9 8 4 4 9 15 10 14 12 15 13 11 9 11 18 19 21 23 25 22 22 21 21 23 19 18 21 16 15 15 12 11 8 10 10 9 8 7 6 6 6 7 8 9 10 10
8 5 9 6 8 5 11 4 12 7 16 14 10 8 8 11 9 8 16 18 22 21 26 24 23 23 22 22 22 20 19 17 16 12 11 10 5 7 7 7 7 7 8 9 10 10 11 11 12
8 6 10 9 10 8 5 5 4 4 12 18 14 11 6 11 9 8 8 18 21 21 19 19 22 23 23 20 20 21 22 19 15 14 11 11 10 8 7 7 7 9 10 11 12 13 12 14 17
5 5 7 9 14 8 8 6 7 6 15 20 17 16 16 10 9 12 7 9 19 19 18 20 23 23 22 22 22 21 25 21 19 17 18 16 13 11 12 12 11 12 12 13 15 16 17 18 20
4 3 2 5 17 7 13 9 8 13 10 18 25 24 22 22 13 18 14 11 13 18 22 22 25 24 24 23 22 22 21 20 20 20 17 16 15 16 16 18 15 15 17 16 17 18 20 21 19
3 3 4 8 9 2 4 4 4 7 19 26 28 27 27 29 26 18 21 17 14 15 20 24 23 23 24 23 24 26 24 23 19 18 18 20 24 24 21 18 17 18 17 18 20 21 22 23 23
3 7 4 8 4 4 3 1 14 15 16 11 23 26 26 26 28 30 26 24 20 16 16 20 25 26 26 25 26 23 23 21 20 20 20 19 18 18 18 17 18 18 18 19 21 22 23 22 21
5 9 8 9 6 5 3 3 6 6 11 16 20 27 25 24 24 23 31 35 28 22 19 19 18 23 24 24 26 24 23 24 23 22 21 20 18 16 16 17 18 19 20 21 21 21 21 20 19
8 2 9 6 2 1 5 4 4 4 15 6 9 29 26 25 22 21 20 34 33 28 25 23 20 20 23 24 25 25 25 24 23 22 20 18 17 17 17 17 19 20 20 20 19 19 19 19 19
1 6 3 2 2 4 4 4 7 3 5 9 12 20 19 27 26 23 18 20 37 32 28 25 24 22 23 24 24 24 23 22 21 20 19 19 17 17 17 18 19 19 19 19 19 20 20 21 21
7 4 4 4 3 3 0 5 5 4 5 13 15 14 7 4 8 23 20 18 20 26 24 23 24 23 23 24 24 24 22 20 19 18 17 17 17 18 19 19 19 19 20 20 20 19 19 19 19
5 3 2 4 2 4 3 5 6 4 6 5 6 6 3 2 3 4 7 19 22 22 22 23 27 26 23 23 24 22 21 21 19 17 16 15 16 17 17 18 19 19 18 18 18 18 18 18 18
3 3 3 3 1 3 3 3 4 5 6 7 8 11 7 1 1 1 3 8 13 24 23 20 23 25 23 24 24 22 22 19 18 17 15 13 14 17 18 17 17 19 19 18 18 18 18 17 18
3 2 2 3 4 3 2 5 6 8 9 9 8 9 7 6 8 2 5 7 11 18 22 23 23 26 27 25 24 22 21 19 18 15 12 14 17 19 18 18 19 18 18 18 18 18 18 17 18
2 2 1 4 3 1 4 3 3 8 9 16 9 5 4 3 5 5 5 7 12 17 19 21 21 25 26 25 23 20 20 18 16 19 27 20 19 18 17 18 18 18 18 18 18 18 17 16 17
Wind_Direction
211 174 157 170 118 81 222 248 274 259 240 129 86 24 113 57 57 181 145 163 166 158 157 152 143 139 137 134 127 129 124 124 112 109 107 114 125 131 133 129 118 112 106 105 101 98 98 101 103
194 184 181 236 145 155 244 232 214 218 48 144 86 15 45 41 77 132 150 169 161 155 155 148 146 143 141 135 129 126 126 127 116 106 101 100 106 114 120 124 119 113 111 105 101 102 102 103 107
198 191 181 157 187 195 216 218 188 132 264 41 118 26 26 84 88 143 161 161 157 156 152 147 147 147 141 136 130 128 130 130 121 110 104 100 101 102 107 113 114 112 106 102 99 101 104 104 104
212 198 237 164 213 228 234 318 155 153 204 80 155 53 65 72 118 155 162 159 157 155 152 148 150 149 143 139 133 130 133 134 127 121 111 107 104 105 111 114 112 110 109 105 103 104 106 109 109
223 208 193 211 237 242 210 248 108 320 165 162 133 164 141 126 120 153 168 159 161 153 153 149 155 149 145 144 138 134 138 138 135 128 120 114 109 108 110 112 112 111 109 108 106 105 106 108 112
233 203 161 212 223 238 218 201 160 179 181 170 124 124 104 157 136 142 164 169 164 153 156 154 156 148 146 151 145 143 144 145 143 137 136 120 118 114 113 113 113 112 111 109 106 105 106 106 104
195 147 217 188 202 226 184 137 88 191 139 134 152 97 126 134 187 165 176 179 165 163 161 159 159 155 157 158 150 151 149 150 149 140 154 138 129 122 120 118 116 115 115 114 111 108 106 105 101
211 149 240 195 208 189 177 115 91 84 119 109 141 154 168 136 154 172 173 171 171 170 175 169 162 162 162 159 151 152 153 155 156 156 154 127 136 129 125 123 124 124 122 121 119 115 106 96 93
205 211 213 209 219 200 142 109 82 76 115 83 80 149 145 144 158 184 184 170 175 173 184 175 169 167 166 161 155 158 159 159 162 161 152 130 138 139 137 134 132 132 135 140 146 142 131 117 114
192 206 201 173 292 164 135 99 105 111 103 88 100 139 157 156 166 180 215 177 172 170 168 182 177 173 172 167 159 165 164 158 160 156 154 152 141 138 148 152 159 165 166 174 187 200 242 260 265
199 198 219 63 22 294 124 100 105 125 59 119 142 156 164 166 166 185 210 185 162 168 175 175 179 180 176 172 163 166 172 164 156 149 153 170 164 187 226 243 222 231 234 232 231 228 259 313 324
191 189 146 66 13 352 54 107 53 142 125 118 137 163 175 172 172 179 177 231 173 170 182 176 185 182 188 192 171 143 158 170 167 154 158 193 191 246 254 223 230 241 247 245 239 261 290 319 338
218 162 179 235 353 352 331 58 115 117 130 124 118 157 180 184 180 181 177 183 202 197 185 194 196 197 198 195 188 164 188 190 171 179 184 197 225 226 233 233 247 264 252 274 287 305 316 312 316
185 174 165 200 168 309 305 354 172 159 133 123 122 127 181 179 183 193 191 186 197 197 196 197 201 200 210 204 189 197 202 211 204 211 212 216 218 224 220 223 239 250 261 257 254 266 274 289 289
197 183 119 237 235 183 3 312 285 164 153 143 141 129 156 182 182 201 196 192 197 204 220 204 203 194 208 211 200 198 195 208 219 222 227 224 226 222 224 228 225 234 244 245 254 261 272 280 284
150 108 180 205 199 220 163 176 269 280 170 176 152 154 138 140 195 209 204 202 197 201 215 225 217 205 206 208 209 204 200 208 217 231 241 218 217 220 216 215 228 238 250 265 272 274 277 281 288
133 163 190 157 202 107 184 194 250 295 192 193 193 166 160 140 141 163 197 183 196 209 207 212 208 216 214 210 207 202 206 205 213 231 223 221 218 228 230 229 227 239 256 269 279 282 286 289 289
168 180 176 154 187 207 137 237 252 284 278 200 202 210 175 176 175 185 196 193 191 200 202 204 207 212 217 212 213 205 201 208 213 217 215 225 234 240 246 266 266 255 256 264 273 282 287 280 281
306 153 152 163 171 156 195 213 227 232 279 215 199 209 227 217 218 201 201 205 209 198 200 198 207 202 200 202 206 203 203 206 203 207 212 214 220 223 242 252 257 256 259 263 265 271 271 273 276
354 127 227 116 161 172 195 215 213 223 240 223 227 231 229 239 230 198 216 217 210 208 204 208 211 208 207 205 208 210 209 211 216 220 215 221 226 236 239 246 246 248 251 256 265 267 269 274 280
302 167 167 143 145 48 135 334 261 233 234 231 235 241 242 236 222 220 216 216 222 212 209 213 212 211 214 212 208 211 211 214 215 216 224 232 234 241 246 253 258 263 263 260 262 265 270 271 272
279 222 238 140 119 172 173 39 237 223 223 227 237 236 239 237 237 240 224 221 220 226 219 214 218 215 211 215 218 218 221 219 219 220 224 232 241 247 249 255 263 268 271 271 271 272 272 274 277
244 321 191 164 177 113 205 129 274 220 212 220 223 223 228 236 249 238 237 227 233 227 233 231 225 224 217 218 219 216 219 219 220 223 232 239 244 245 250 257 265 271 274 275 276 274 275 276 275
290 145 47 33 63 43 192 174 272 193 207 214 212 225 226 232 243 237 249 231 226 223 224 223 228 227 224 216 219 219 221 224 225 227 232 239 245 252 260 270 278 279 279 278 277 276 276 275 276
151 69 115 151 69 209 196 128 245 224 175 197 209 222 233 240 233 233 241 227 222 216 217 220 224 226 225 224 225 225 224 224 225 227 231 238 248 262 274 280 281 280 279 278 278 278 278 276 274
163 187 144 143 178 198 72 200 246 201 166 126 144 156 162 104 219 237 229 227 217 218 224 229 228 222 224 222 219 219 221 223 225 226 232 244 258 270 276 282 282 280 279 279 278 278 276 275 273
144 265 225 99 71 84 231 267 335 146 119 107 119 111 71 60 206 205 210 225 223 234 240 246 239 231 225 226 222 218 220 217 218 227 236 248 264 269 276 279 279 280 280 279 280 280 278 275 271
125 200 47 5 91 165 257 235 224 157 121 112 88 88 81 76 170 129 259 240 227 232 239 241 236 230 223 220 221 220 224 222 228 239 247 271 278 277 275 277 279 280 281 281 279 278 276 273 271
13 30 33 121 138 154 169 272 230 158 148 123 118 115 104 70 35 308 256 241 225 224 229 237 235 230 224 222 221 217 217 222 225 230 259 265 268 271 276 275 273 276 278 278 278 276 274 273 271
107 191 249 123 257 158 138 279 339 136 131 130 159 147 170 122 22 347 286 268 249 244 238 241 238 230 227 227 225 220 216 219 231 253 275 259 259 265 268 273 275 277 278 276 275 273 272 270 268